Volver al catálogo

COSMOS 2251 DEB

LostLEO
NORAD 35285·DEBRIS·🇷🇺 Russia

Lanzado Jun 16, 1993 desde Plesetsk Cosmodrome

Loading…

Próximos Pases (próximas 24 horas)

TLE

ObsoletoSource: Space-Track

Época: Dec 2, 2023, 10:25 UTC

1 35285U 93036AJP 23336.43430588  .00024636  00000-0  45144-2 0  9997
2 35285  74.0272 349.9954 0017192 275.7965  84.1244 14.65608586772177

Sigue COSMOS 2251 DEB en tiempo real con AllMySat

Download on the App Store